Station OBGN6 - 8311030 - Ogdensburg, NY Image indicating link to RSS feed of recent meteorological observations for station OBGN6


Conditions at OBGN6 as of
(8:30 pm EDT on 04/15/2024)
0030 GMT on 04/16/2024:
     

Click on the graph icon in the table below to see a time series plot of the last five days of that observation.

5-day plot - Atmospheric Pressure Atmospheric Pressure (PRES):29.96 in
5-day plot - Air Temperature Air Temperature (ATMP): 48.0 °F
NOS Water Level Observation Network Water Level
Previous observations
TIME
(EDT)
5-day plot - Wind Direction
WDIR
 
5-day plot - Wind Speed
WSPD
kts
5-day plot - Wind Gust
GST
kts
5-day plot - Wave Height
WVHT
ft
5-day plot - Dominant Wave Period
DPD
sec
5-day plot - Average Wave Period
APD
sec
5-day plot - Mean Wave Direction
MWD
 
5-day plot - Atmospheric Pressure
PRES
in
5-day plot - Pressure Tendency
PTDY
in
5-day plot - Air Temperature
ATMP
°F
5-day plot - Water Temperature
WTMP
°F
5-day plot - Dew Point
DEWP
°F
5-day plot - Salinity
SAL
psu
5-day plot - Visibility
VIS
nmi
5-day plot - Tide (above MLLW)
TIDE
ft
2024-04-15 08:24 pm-------29.95- 48.0-----
2024-04-15 08:18 pm-------29.93-------
2024-04-15 08:12 pm-------29.94-------
2024-04-15 08:06 pm-------29.94-------
2024-04-15 08:00 pm-------29.94+0.07 47.5-----
2024-04-15 07:54 pm-------29.94- 47.7-----
2024-04-15 07:48 pm-------29.94- 48.9-----
2024-04-15 07:42 pm-------29.93- 50.2-----
2024-04-15 07:36 pm-------29.92- 50.0-----
2024-04-15 07:30 pm-------29.91- 48.9-----
2024-04-15 07:24 pm-------29.90- 49.1-----
2024-04-15 07:18 pm-------29.90- 50.7-----
2024-04-15 07:12 pm-------29.89- 50.5-----
2024-04-15 07:06 pm-------29.89- 50.9-----
2024-04-15 07:00 pm-------29.89+0.04 52.0-----
2024-04-15 06:54 pm-------29.89- 52.0-----
2024-04-15 06:48 pm-------29.89- 52.7-----
2024-04-15 06:42 pm-------29.88- 51.6-----
2024-04-15 06:36 pm-------29.88- 51.8-----
2024-04-15 06:30 pm-------29.88-------
2024-04-15 06:24 pm-------29.88-------
2024-04-15 06:18 pm-------29.88- 51.8-----
2024-04-15 06:12 pm-------29.88- 52.5-----
2024-04-15 06:06 pm-------29.88- 51.8-----
2024-04-15 06:00 pm-------29.88+0.02 51.4-----
2024-04-15 05:54 pm-------29.88- 52.2-----
2024-04-15 05:48 pm-------29.88- 52.5-----
2024-04-15 05:42 pm-------29.88- 53.4-----
2024-04-15 05:36 pm-------29.88- 52.7-----
2024-04-15 05:30 pm-------29.88- 51.4-----
2024-04-15 05:24 pm-------29.87- 51.8-----
2024-04-15 05:18 pm--------- 53.6-----
2024-04-15 05:12 pm--------- 54.5-----
2024-04-15 05:06 pm--------- 54.1-----
2024-04-15 05:00 pm-------29.87+0.01 54.0-----
2024-04-15 04:54 pm-------29.86- 53.6-----
2024-04-15 04:48 pm-------29.86- 54.0-----
2024-04-15 04:42 pm-------29.86- 55.0-----
2024-04-15 04:36 pm-------29.86- 54.3-----
2024-04-15 04:30 pm-------29.86- 54.5-----
2024-04-15 04:24 pm-------29.86- 54.0-----
2024-04-15 04:18 pm-------29.86- 53.4-----
2024-04-15 04:12 pm-------29.85- 54.1-----
2024-04-15 04:06 pm-------29.85- 53.2-----
2024-04-15 04:00 pm-------29.85-0.01 54.7-----
2024-04-15 03:54 pm-------29.85- 55.0-----
2024-04-15 03:48 pm-------29.85- 54.0-----
2024-04-15 03:42 pm-------29.85- 54.9-----
2024-04-15 03:36 pm-------29.85- 54.7-----
2024-04-15 03:30 pm-------29.85- 54.7-----
2024-04-15 03:24 pm-------29.85- 54.3-----
2024-04-15 03:18 pm-------29.86- 54.3-----
2024-04-15 03:12 pm-------29.86- 53.4-----
2024-04-15 03:06 pm-------29.86- 54.0-----
2024-04-15 03:00 pm-------29.86+0.00 54.3-----
2024-04-15 02:54 pm-------29.86- 53.6-----
2024-04-15 02:48 pm-------29.86- 53.4-----
2024-04-15 02:42 pm-------29.86- 53.8-----
2024-04-15 02:36 pm-------29.86- 53.8-----
2024-04-15 02:30 pm-------29.86- 53.6-----
2024-04-15 02:24 pm-------29.86- 53.6-----
2024-04-15 02:18 pm-------29.86- 53.2-----
2024-04-15 02:12 pm-------29.86- 53.2-----
2024-04-15 02:06 pm-------29.86- 53.1-----
2024-04-15 02:00 pm-------29.86+0.00 53.6-----
2024-04-15 01:54 pm-------29.86- 52.3-----
2024-04-15 01:48 pm-------29.86- 52.7-----
2024-04-15 01:42 pm-------29.86- 52.3-----
2024-04-15 01:36 pm-------29.86- 52.3-----
2024-04-15 01:30 pm-------29.86- 52.3-----
2024-04-15 01:24 pm-------29.86- 52.0-----
2024-04-15 01:18 pm-------29.86- 52.0-----
2024-04-15 01:12 pm-------29.86- 52.2-----
2024-04-15 01:06 pm-------29.86- 51.4-----
2024-04-15 01:00 pm-------29.86+0.02 51.6-----
2024-04-15 12:54 pm-------29.86- 51.3-----
2024-04-15 12:48 pm-------29.86- 50.7-----
2024-04-15 12:42 pm-------29.86- 50.5-----
2024-04-15 12:36 pm-------29.87- 50.2-----
2024-04-15 12:30 pm-------29.87- 50.0-----
2024-04-15 12:24 pm-------29.87- 50.4-----
2024-04-15 12:18 pm-------29.87- 49.8-----
2024-04-15 12:12 pm-------29.87- 49.5-----
2024-04-15 12:06 pm-------29.86- 49.6-----
2024-04-15 12:00 pm-------29.86+0.04 49.3-----
2024-04-15 11:54 am-------29.86- 48.7-----
2024-04-15 11:48 am-------29.86- 48.9-----
2024-04-15 11:42 am-------29.87- 48.9-----
2024-04-15 11:36 am-------29.87- 48.7-----
2024-04-15 11:30 am-------29.87- 48.4-----
2024-04-15 11:24 am-------29.87- 48.6-----
2024-04-15 11:18 am-------29.86- 48.2-----
2024-04-15 11:12 am-------29.86- 47.8-----
2024-04-15 11:06 am-------29.86- 48.0-----
2024-04-15 11:00 am-------29.86+0.05 47.8-----
2024-04-15 10:54 am-------29.86- 47.7-----
2024-04-15 10:48 am-------29.86- 47.3-----
2024-04-15 10:42 am-------29.85- 47.5-----
2024-04-15 10:36 am-------29.85- 47.3-----
2024-04-15 10:30 am-------29.85-------
2024-04-15 10:24 am-------29.85-------
2024-04-15 10:18 am-------29.85- 46.8-----
2024-04-15 10:12 am-------29.84- 46.6-----
2024-04-15 10:06 am-------29.84- 46.8-----
2024-04-15 10:00 am-------29.84+0.06 45.9-----
2024-04-15 09:54 am-------29.84- 45.9-----
2024-04-15 09:48 am-------29.83- 45.3-----
2024-04-15 09:42 am-------29.83- 44.8-----
2024-04-15 09:36 am-------29.83- 44.8-----
2024-04-15 09:30 am-------29.83- 44.4-----
2024-04-15 09:24 am-------29.83- 44.4-----
2024-04-15 09:18 am-------29.82- 44.4-----
2024-04-15 09:12 am-------29.83- 44.2-----
2024-04-15 09:06 am-------29.82- 44.2-----
2024-04-15 09:00 am-------29.82+0.07 44.1-----
2024-04-15 08:54 am-------29.82- 44.1-----
2024-04-15 08:48 am-------29.82- 44.1-----
2024-04-15 08:42 am-------29.82- 43.9-----
2024-04-15 08:36 am-------29.82- 43.9-----
2024-04-15 08:30 am-------29.82- 43.7-----
2024-04-15 08:24 am-------29.82- 43.7-----
2024-04-15 08:18 am-------29.81- 43.7-----
2024-04-15 08:12 am-------29.81- 43.9-----
2024-04-15 08:06 am-------29.81- 43.7-----
2024-04-15 08:00 am-------29.81+0.08 43.9-----
2024-04-15 07:54 am-------29.81- 43.9-----
2024-04-15 07:48 am-------29.80- 43.9-----
2024-04-15 07:42 am-------29.80- 43.9-----
2024-04-15 07:36 am-------29.80- 43.9-----
2024-04-15 07:30 am-------29.80- 43.9-----
2024-04-15 07:24 am-------29.79- 43.9-----
2024-04-15 07:18 am-------29.79- 43.9-----
2024-04-15 07:12 am-------29.79- 43.9-----
2024-04-15 07:06 am-------29.78- 43.9-----
2024-04-15 07:00 am-------29.78+0.07 43.9-----
2024-04-15 06:54 am-------29.78- 43.7-----
2024-04-15 06:48 am-------29.78- 43.9-----
2024-04-15 06:42 am-------29.77- 43.9-----
2024-04-15 06:36 am-------29.77- 44.1-----
2024-04-15 06:30 am-------29.76- 43.9-----
2024-04-15 06:24 am-------29.76- 44.1-----
2024-04-15 06:18 am-------29.75- 43.9-----
2024-04-15 06:12 am-------29.75- 44.1-----
2024-04-15 06:06 am-------29.75- 44.1-----
2024-04-15 06:00 am-------29.75+0.05 44.1-----
2024-04-15 05:54 am-------29.75- 44.2-----
2024-04-15 05:48 am-------29.75- 44.1-----
2024-04-15 05:42 am-------29.74- 44.2-----
2024-04-15 05:36 am-------29.74- 44.4-----
2024-04-15 05:30 am-------29.74- 44.4-----
2024-04-15 05:24 am-------29.74- 44.4-----
2024-04-15 05:18 am-------29.73- 44.4-----
2024-04-15 05:12 am-------29.73- 44.4-----
2024-04-15 05:06 am-------29.73- 44.4-----
2024-04-15 05:00 am-------29.73+0.03 44.4-----
2024-04-15 04:54 am-------29.72- 44.4-----
2024-04-15 04:48 am-------29.72- 44.4-----
2024-04-15 04:42 am-------29.72- 44.6-----
2024-04-15 04:36 am-------29.72- 44.6-----
2024-04-15 04:30 am-------29.72- 44.6-----
2024-04-15 04:24 am-------29.72- 44.6-----
2024-04-15 04:18 am-------29.72- 44.6-----
2024-04-15 04:12 am-------29.72- 44.6-----
2024-04-15 04:06 am-------29.72- 44.6-----
2024-04-15 04:00 am-------29.71+0.01 44.8-----
2024-04-15 03:54 am-------29.71- 44.6-----
2024-04-15 03:48 am-------29.71- 44.6-----
2024-04-15 03:42 am-------29.71- 44.6-----
2024-04-15 03:36 am-------29.71- 44.6-----
2024-04-15 03:30 am-------29.71- 44.6-----
2024-04-15 03:24 am-------29.70- 44.6-----
2024-04-15 03:18 am-------29.70- 44.2-----
2024-04-15 03:12 am-------29.70- 44.1-----
2024-04-15 03:06 am-------29.70- 43.9-----
2024-04-15 03:00 am-------29.70+0.00 43.9-----
2024-04-15 02:54 am-------29.70- 43.3-----
2024-04-15 02:48 am-------29.70- 43.3-----
2024-04-15 02:42 am-------29.70- 43.3-----
2024-04-15 02:36 am-------29.70- 43.3-----
2024-04-15 02:30 am-------29.70- 43.5-----
2024-04-15 02:24 am-------29.70- 43.5-----
2024-04-15 02:18 am-------29.70- 43.3-----
2024-04-15 02:12 am-------29.70- 43.3-----
2024-04-15 02:06 am-------29.70- 43.5-----
2024-04-15 02:00 am-------29.70+0.00 43.7-----
2024-04-15 01:54 am-------29.70- 43.5-----
2024-04-15 01:48 am-------29.69- 43.5-----
2024-04-15 01:42 am-------29.69- 43.3-----
2024-04-15 01:36 am-------29.70- 43.5-----
2024-04-15 01:30 am-------29.70- 43.5-----
2024-04-15 01:24 am-------29.70- 43.7-----
2024-04-15 01:18 am-------29.70- 43.7-----
2024-04-15 01:12 am-------29.70- 43.7-----
2024-04-15 01:06 am-------29.70- 43.7-----
2024-04-15 01:00 am-------29.70+0.00 43.9-----
2024-04-15 12:54 am-------29.70- 44.1-----
2024-04-15 12:48 am-------29.70- 43.9-----
2024-04-15 12:42 am-------29.70- 44.1-----
2024-04-15 12:36 am-------29.70- 43.9-----
2024-04-15 12:30 am-------29.69- 43.5-----
2024-04-15 12:24 am-------29.70- 43.5-----
2024-04-15 12:18 am-------29.70- 43.7-----
2024-04-15 12:12 am-------29.70- 43.3-----
2024-04-15 12:06 am-------29.70- 43.3-----
2024-04-15 12:00 am-------29.70+0.03 43.3-----
2024-04-14 11:54 pm-------29.70- 43.2-----
2024-04-14 11:48 pm-------29.70- 43.2-----
2024-04-14 11:42 pm-------29.70- 42.8-----
2024-04-14 11:36 pm-------29.70- 43.0-----
2024-04-14 11:30 pm-------29.70- 43.2-----
2024-04-14 11:24 pm-------29.70- 43.3-----
2024-04-14 11:18 pm-------29.70- 43.5-----
2024-04-14 11:12 pm-------29.70- 43.7-----
2024-04-14 11:06 pm-------29.70- 43.3-----
2024-04-14 11:00 pm-------29.70+0.04 43.2-----
2024-04-14 10:54 pm-------29.70- 43.2-----
2024-04-14 10:48 pm-------29.70- 43.7-----
2024-04-14 10:42 pm-------29.70- 44.2-----
2024-04-14 10:36 pm-------29.70- 45.1-----
2024-04-14 10:30 pm-------29.70- 45.1-----
2024-04-14 10:24 pm-------29.70- 45.1-----
2024-04-14 10:18 pm-------29.70- 44.8-----
2024-04-14 10:12 pm-------29.70- 44.8-----
2024-04-14 10:06 pm-------29.70- 44.6-----
2024-04-14 10:00 pm-------29.69+0.03 44.6-----
2024-04-14 09:54 pm-------29.70- 44.2-----
2024-04-14 09:48 pm-------29.70- 45.0-----
2024-04-14 09:42 pm-------29.69- 45.1-----
2024-04-14 09:36 pm-------29.68- 45.3-----
2024-04-14 09:30 pm-------29.68- 44.8-----
2024-04-14 09:24 pm-------29.68- 45.0-----
2024-04-14 09:18 pm-------29.67- 45.1-----
2024-04-14 09:12 pm-------29.67- 45.1-----
2024-04-14 09:06 pm-------29.67- 45.1-----
2024-04-14 09:00 pm-------29.67+0.01 45.3-----
2024-04-14 08:54 pm-------29.67- 45.3-----